[[{"header":{"parameterUnit":"m.s-1","parameterCategory":1,"la1":30.2991,"la2":30.254,"lo1":-89.0895,"lo2":-89.0444,"dy":0.0017,"dx":0.0017,"nx":28,"ny":28,"refTime":"2023-10-15T03:00:00:Z","depth":0,"parameterNumber":2,"parameterNumberName":"U-component_of_WINDS"},"data":[0,0,0,0,0,0,0,0,0,0,0,0,0,0,0,0,0,0,0,0,0,0,0,0,0,0,0,0,0,0,0,0,0,0,0,0,0,0,0,0,0,0,0,0,0,0,0,0,0,0,0,0,0,0,0,0,0,0,3.8438,3.8439,0,3.8446,3.8446,3.8447,3.8402,3.84,3.8399,3.8398,3.8405,3.8407,3.8408,0,0,0,0,0,0,0,0,0,0,0,0,0,3.8386,3.8387,3.8438,3.8439,3.8439,3.8446,3.8446,3.8447,3.8402,3.84,3.8399,3.8397,3.8405,3.8407,3.8408,0,0,0,0,0,0,0,0,0,0,0,0,0,3.8403,3.8387,3.8438,3.8417,3.8416,3.8446,3.8446,3.8447,3.8402,3.84,3.8398,3.8397,3.8404,3.8406,3.8408,3.846,0,0,3.8415,3.8416,0,0,0,0,0,0,0,0,3.8402,3.8405,3.842,3.8419,3.8417,3.8421,3.843,3.8451,3.8403,3.8407,3.8398,3.8396,3.8412,3.8413,3.8419,3.846,3.846,3.8415,3.8416,3.8417,3.8418,0,0,0,0,0,0,0,3.8401,3.8404,3.8441,3.8421,3.8419,3.8408,3.8408,3.8434,3.842,3.8407,3.8403,3.8405,3.8411,3.8417,3.8419,3.846,3.8415,3.8417,3.8418,3.8419,3.8546,3.8548,0,0,0,0,0,0,3.8402,3.8403,3.8441,3.8442,3.8404,3.841,3.8411,3.8422,3.842,3.8418,3.8407,3.8403,3.8415,3.8417,3.8419,3.848,3.8417,3.8419,3.842,3.8544,3.8546,3.8549,0,0,0,0,0,0,3.8401,3.8406,3.8441,3.8422,3.8425,3.8413,3.8426,3.8423,3.8429,3.842,3.8417,3.8416,3.8413,3.8416,3.845,3.8479,3.842,3.8422,3.8541,3.8545,3.8547,3.8601,0,0,0,0,0,0,3.84,3.8406,3.8425,3.8422,3.8427,3.8472,3.8428,3.8424,3.8433,3.8428,3.8428,3.8426,3.8412,3.8448,3.8452,3.8481,3.8424,3.8539,3.8543,3.8546,3.8597,3.8606,3.8614,0,0,0,0,0,3.8398,3.8439,3.8426,3.8431,3.845,3.8474,3.8476,3.8459,3.8435,3.8455,3.8449,3.8426,3.8476,3.8451,3.8457,3.8486,3.8537,3.8541,3.8546,3.8593,3.8604,3.8614,0,0,0,0,0,0,3.8444,3.8438,3.8424,3.8465,3.847,3.8466,3.8489,3.8471,3.8483,3.8478,3.8457,3.8457,3.8496,3.8494,3.8467,3.8537,3.8502,3.8508,3.8536,3.8546,3.8555,3.8554,3.8425,0,0,0,0,0,3.8459,3.8479,3.8473,3.851,3.8513,3.8501,3.8511,3.8498,3.8503,3.8504,3.8501,3.8507,3.8524,3.8535,3.855,3.8597,3.8597,3.862,3.8629,3.8636,3.8641,3.8667,3.8678,3.8564,3.8564,3.8564,0,0,3.849,3.8489,3.8503,3.8519,3.8522,3.8543,3.8503,3.8527,3.8543,3.8508,3.854,3.8539,3.8543,3.8585,3.8603,3.8585,3.8673,3.8642,3.8648,3.8649,3.8673,3.8684,3.8694,3.8568,3.8567,3.8566,0,0,3.8557,3.8559,3.8591,3.8595,3.86,3.8592,3.86,3.8599,3.8597,3.8629,3.8604,3.8623,3.8652,3.8657,3.8663,3.8736,3.8715,3.8741,3.8785,3.8811,3.882,3.8828,3.8854,3.8864,3.8747,3.8747,3.8747,0,3.8595,3.8626,3.8609,3.8635,3.8644,3.8614,3.8647,3.8652,3.8661,3.8668,3.8648,3.8686,3.8687,3.873,3.8748,3.8754,3.8762,3.8741,3.882,3.8828,3.8835,3.886,3.887,3.875,3.875,3.8749,3.8749,0,3.8673,3.8695,3.872,3.8732,3.8743,3.8772,3.876,3.8774,3.8761,3.8755,3.879,3.879,3.8806,3.8815,3.8802,3.8857,3.8846,3.8824,3.8788,3.8849,3.8872,3.8882,3.8755,3.8753,3.8752,3.8752,0,0,3.8767,3.8771,3.878,3.8786,3.879,3.8807,3.8836,3.8852,3.8865,3.8873,3.8897,3.8924,3.8904,3.8911,3.8899,3.8922,3.898,3.8897,3.8896,3.8912,3.9042,3.9059,3.907,3.8967,3.8969,3.897,3.9042,0,3.8834,3.8883,3.887,3.8919,3.894,3.8914,3.8939,3.8945,3.8942,3.8959,3.8955,3.8975,3.8947,3.8951,3.8973,3.8969,3.9006,3.8963,3.899,3.8991,3.8989,3.9082,3.9099,3.9166,3.9051,3.9052,3.9053,0,3.8917,3.893,3.8982,3.8985,3.8993,3.9016,3.9031,3.9048,3.9055,3.9051,3.9061,3.9044,3.9073,3.9039,3.9079,3.905,3.9061,3.9061,3.9063,3.9064,3.9025,3.9086,3.9187,3.9198,3.9067,3.9066,3.9065,0,3.8981,3.9012,3.9047,3.9053,3.9057,3.9074,3.9077,3.9082,3.9093,3.9106,3.9113,3.9129,3.9138,3.9151,3.914,3.9116,3.9183,3.9146,3.918,3.9181,3.9195,3.9194,3.9299,3.9202,3.9202,3.9202,3.9201,0,3.9057,3.909,3.9077,3.9098,3.9135,3.912,3.9157,3.9156,3.9162,3.9183,3.9162,3.9182,3.9166,3.9186,3.9178,3.9213,3.9217,3.9215,3.9212,3.9217,3.9217,3.9223,3.9218,3.9204,3.9204,3.9203,3.9203,0,3.9134,3.9127,3.9164,3.9166,3.9167,3.9194,3.9196,3.9217,3.9213,3.924,3.9246,3.9239,3.9262,3.9252,3.9275,3.927,3.9315,3.9306,3.9313,3.9311,3.9345,3.9342,3.9457,3.9472,3.9366,3.9367,3.9367,0,3.9182,3.9207,3.9213,3.9226,3.9231,3.9253,3.9264,3.9251,3.9265,3.9276,3.9295,3.9316,3.9332,3.9369,3.9366,3.9384,3.9376,3.9415,3.9378,3.9382,3.9377,3.9375,3.9378,3.9422,3.9423,3.9424,3.9425,0,3.9269,3.9265,3.9283,3.9301,3.9316,3.9329,3.934,3.9352,3.934,3.9356,3.9379,3.9392,3.9417,3.9438,3.9454,3.9457,3.944,3.9437,3.9446,3.945,3.9454,3.9453,3.9333,3.9434,3.9433,3.9432,3.9432,3.9432,3.9334,3.9356,3.9364,3.9385,3.9393,3.9404,3.9424,3.9423,3.9442,3.9462,3.9453,3.948,3.9489,3.9509,3.9515,3.9536,3.9521,3.9533,3.9536,3.954,3.9545,3.9451,3.9539,3.9539,3.9538,3.9538,3.9538,0,3.942,3.9425,3.9445,3.9462,3.9479,3.9462,3.9474,3.949,3.9514,3.9524,3.954,3.9568,3.9589,3.9589,3.9608,3.9625,3.9618,3.9631,3.9629,3.9631,3.9557,3.9547,3.9637,3.9637,3.9637,3.9637,3.9637,3.9637,3.9467,3.9503,3.9501,3.9541,3.9545,3.9572,3.9581,3.9591,3.9599,3.9631,3.9649,3.9649,3.9655,3.9675,3.9694,3.9693,3.9702,3.9718,3.9715,3.9645,3.9636,3.9626,3.9617,3.972,3.972,3.9786,3.9787,3.9788]},{"header":{"parameterUnit":"m.s-1","parameterCategory":1,"la1":30.2991,"la2":30.254,"lo1":-89.0895,"lo2":-89.0444,"dy":0.0017,"dx":0.0017,"nx":28,"ny":28,"refTime":"2023-10-15T03:00:00:Z","depth":0,"parameterNumber":3,"parameterNumberName":"V-component_of_WINDS"},"data":[0,0,0,0,0,0,0,0,0,0,0,0,0,0,0,0,0,0,0,0,0,0,0,0,0,0,0,0,0,0,0,0,0,0,0,0,0,0,0,0,0,0,0,0,0,0,0,0,0,0,0,0,0,0,0,0,0,0,-6.7727,-6.7728,0,-6.7786,-6.7787,-6.7787,-6.7747,-6.7746,-6.7744,-6.7742,-6.7798,-6.7801,-6.7804,0,0,0,0,0,0,0,0,0,0,0,0,0,-6.7577,-6.758,-6.7727,-6.7728,-6.7729,-6.7786,-6.7787,-6.7787,-6.7748,-6.7746,-6.7743,-6.7741,-6.7797,-6.78,-6.7804,0,0,0,0,0,0,0,0,0,0,0,0,0,-6.7639,-6.7581,-6.7727,-6.7716,-6.7715,-6.7786,-6.7787,-6.7788,-6.7748,-6.7746,-6.7743,-6.774,-6.7795,-6.78,-6.7805,-6.7888,0,0,-6.7819,-6.7821,0,0,0,0,0,0,0,0,-6.7636,-6.7645,-6.7717,-6.7717,-6.7716,-6.7757,-6.7754,-6.7821,-6.7749,-6.7736,-6.7742,-6.7739,-6.7786,-6.7791,-6.7808,-6.789,-6.7893,-6.782,-6.7822,-6.7824,-6.7826,0,0,0,0,0,0,0,-6.7632,-6.7642,-6.775,-6.7718,-6.7718,-6.7707,-6.7713,-6.7767,-6.7775,-6.7737,-6.7734,-6.7742,-6.7785,-6.7804,-6.7809,-6.7894,-6.7819,-6.7824,-6.7827,-6.7828,-6.8048,-6.8051,0,0,0,0,0,0,-6.7629,-6.7639,-6.7748,-6.7752,-6.7669,-6.7712,-6.7718,-6.7746,-6.7774,-6.7776,-6.7744,-6.774,-6.7797,-6.7804,-6.7811,-6.7911,-6.7824,-6.7829,-6.7832,-6.8045,-6.8049,-6.8052,0,0,0,0,0,0,-6.7626,-6.7639,-6.7746,-6.7695,-6.7708,-6.7717,-6.7749,-6.7749,-6.7767,-6.778,-6.7781,-6.7761,-6.7795,-6.7804,-6.787,-6.7912,-6.7831,-6.7835,-6.8042,-6.8046,-6.805,-6.8111,0,0,0,0,0,0,-6.7622,-6.7638,-6.767,-6.7696,-6.771,-6.7805,-6.7752,-6.7752,-6.7776,-6.7771,-6.7797,-6.7798,-6.7794,-6.7863,-6.7874,-6.7917,-6.7839,-6.8038,-6.8044,-6.8049,-6.8105,-6.8117,-6.8127,0,0,0,0,0,-6.7616,-6.7684,-6.7672,-6.7686,-6.7751,-6.7807,-6.7816,-6.781,-6.778,-6.7812,-6.782,-6.7797,-6.7906,-6.787,-6.7882,-6.7927,-6.8035,-6.8042,-6.8049,-6.81,-6.8115,-6.8127,0,0,0,0,0,0,-6.7661,-6.7687,-6.7674,-6.7752,-6.7778,-6.7801,-6.7841,-6.7826,-6.7859,-6.7853,-6.7844,-6.785,-6.7919,-6.7929,-6.7889,-6.801,-6.7965,-6.7975,-6.8,-6.8014,-6.8025,-6.802,-6.7843,0,0,0,0,0,-6.768,-6.7725,-6.7744,-6.7811,-6.7825,-6.7831,-6.7855,-6.7849,-6.7875,-6.7885,-6.7898,-6.7923,-6.7963,-6.7989,-6.8026,-6.8107,-6.8112,-6.8144,-6.8155,-6.8164,-6.8172,-6.8216,-6.8231,-6.8074,-6.8074,-6.8074,0,0,-6.7719,-6.7739,-6.7768,-6.7821,-6.784,-6.7886,-6.784,-6.789,-6.7924,-6.7892,-6.7956,-6.7966,-6.7993,-6.8067,-6.81,-6.8078,-6.8216,-6.8172,-6.8179,-6.8183,-6.8224,-6.8239,-6.8252,-6.8079,-6.8078,-6.8077,0,0,-6.7815,-6.7834,-6.7893,-6.7914,-6.7945,-6.7949,-6.7963,-6.7988,-6.7995,-6.8059,-6.8036,-6.8075,-6.8144,-6.8165,-6.8184,-6.829,-6.827,-6.8302,-6.8358,-6.8402,-6.8414,-6.8425,-6.8463,-6.8476,-6.831,-6.831,-6.831,0,-6.7859,-6.7929,-6.7924,-6.7977,-6.8001,-6.7977,-6.8036,-6.8056,-6.8096,-6.8113,-6.8088,-6.8175,-6.8191,-6.827,-6.8296,-6.8313,-6.8328,-6.8298,-6.8413,-6.8424,-6.8434,-6.847,-6.8484,-6.8314,-6.8313,-6.8313,-6.8313,0,-6.7982,-6.8031,-6.8074,-6.8117,-6.8146,-6.8201,-6.8204,-6.8233,-6.8226,-6.8232,-6.8297,-6.8317,-6.8358,-6.8376,-6.8368,-6.8454,-6.844,-6.8414,-6.8369,-6.8452,-6.8486,-6.85,-6.8319,-6.8318,-6.8317,-6.8316,0,0,-6.8106,-6.8147,-6.8163,-6.8183,-6.8216,-6.8253,-6.8307,-6.8349,-6.8375,-6.8404,-6.8449,-6.8509,-6.8486,-6.8508,-6.8502,-6.854,-6.8623,-6.851,-6.8511,-6.8531,-6.872,-6.8739,-6.8755,-6.8611,-6.8613,-6.8615,-6.8718,0,-6.8203,-6.83,-6.8298,-6.8387,-6.8432,-6.8411,-6.8458,-6.8483,-6.8491,-6.8529,-6.8537,-6.858,-6.8546,-6.856,-6.8596,-6.8605,-6.8661,-6.8598,-6.8652,-6.8654,-6.8645,-6.8772,-6.8792,-6.8888,-6.8731,-6.8733,-6.8735,0,-6.8329,-6.8366,-6.846,-6.8488,-6.8507,-6.855,-6.8589,-6.8626,-6.8654,-6.8657,-6.8683,-6.8672,-6.8726,-6.8681,-6.8755,-6.8712,-6.8734,-6.8742,-6.8746,-6.875,-6.8699,-6.878,-6.8918,-6.8932,-6.8755,-6.8754,-6.8752,0,-6.8411,-6.8483,-6.8549,-6.8566,-6.86,-6.8631,-6.8647,-6.8672,-6.8698,-6.8732,-6.8749,-6.8788,-6.881,-6.884,-6.8839,-6.8806,-6.8915,-6.8869,-6.8918,-6.8918,-6.8941,-6.894,-6.9084,-6.8956,-6.8956,-6.8955,-6.8955,0,-6.852,-6.8578,-6.8586,-6.8627,-6.8692,-6.8689,-6.8753,-6.8765,-6.8789,-6.883,-6.8814,-6.8853,-6.885,-6.889,-6.8889,-6.8951,-6.8961,-6.8964,-6.8963,-6.8966,-6.8965,-6.8979,-6.8973,-6.8959,-6.8958,-6.8958,-6.8957,0,-6.8621,-6.8629,-6.8699,-6.8727,-6.8736,-6.8782,-6.8805,-6.8844,-6.8851,-6.8904,-6.8916,-6.8927,-6.8973,-6.8975,-6.9027,-6.9027,-6.9103,-6.9095,-6.9094,-6.9093,-6.9142,-6.9137,-6.93,-6.9322,-6.9179,-6.9181,-6.9182,0,-6.869,-6.8735,-6.8768,-6.8797,-6.8814,-6.8859,-6.8887,-6.8886,-6.8915,-6.8951,-6.8985,-6.903,-6.9066,-6.914,-6.9151,-6.9192,-6.9184,-6.9239,-6.919,-6.9191,-6.9185,-6.9182,-6.9187,-6.9248,-6.9249,-6.9251,-6.9252,0,-6.8812,-6.8814,-6.8855,-6.8898,-6.8931,-6.8964,-6.8995,-6.9019,-6.9022,-6.9055,-6.9103,-6.9131,-6.9186,-6.923,-6.927,-6.9284,-6.9269,-6.9267,-6.9281,-6.9283,-6.9281,-6.9284,-6.912,-6.9263,-6.9262,-6.9261,-6.9261,-6.926,-6.8899,-6.8938,-6.8969,-6.9015,-6.9039,-6.9069,-6.9107,-6.912,-6.916,-6.9206,-6.9203,-6.9256,-6.9283,-6.9336,-6.9353,-6.9394,-6.9375,-6.9395,-6.94,-6.9405,-6.941,-6.9276,-6.9401,-6.9401,-6.9401,-6.94,-6.94,0,-6.902,-6.9039,-6.9082,-6.9127,-6.9164,-6.9148,-6.9182,-6.9213,-6.9261,-6.9289,-6.9325,-6.9381,-6.9424,-6.944,-6.9482,-6.9512,-6.9506,-6.9523,-6.9521,-6.9525,-6.9424,-6.9409,-6.9528,-6.9528,-6.9528,-6.9528,-6.9528,-6.9527,-6.9087,-6.9154,-6.916,-6.9238,-6.9256,-6.931,-6.933,-6.9358,-6.938,-6.9444,-6.9481,-6.9491,-6.9514,-6.9559,-6.9598,-6.9601,-6.9618,-6.9638,-6.9638,-6.9544,-6.9531,-6.9519,-6.9504,-6.9642,-6.9642,-6.9735,-6.9736,-6.9737]}]]